Other Surface Observations
Issued by NWS Tucson, AZ

Home | Current Version | Previous Version | Text Only | Print | Product List | Glossary On
Versions: 1 2 3 4 5 6 7 8 9 10 11 12 13 14 15 16 17 18 19 20 21 22 23 24 25 26 27 28 29 30 31 32 33 34 35 36 37 38 39 40 41 42 43 44 45 46 47 48 49 50
000
SXUS55 KTWC 241515
OSOTWC

WEATHER ROUNDUP FOR SOUTHEAST ARIZONA
NATIONAL WEATHER SERVICE TUCSON AZ
815 AM MST FRI FEB 24 2017

AZZ504>506-514-241615-
LOCATION       SKY/WX    TMP DP  RH WIND       PRES   REMARKS
TUCSON         SUNNY     39  21  48 SE6       30.10R WCI  35
DAVIS-MONTHAN  SUNNY     40  20  45 S8        30.09R WCI  34
CHILDRENS PARK N/A      N/A N/A  62 E4                PIMA CO DEQ
ALVERNON/22ND  N/A       39 N/A N/A SE3               PIMA CO DEQ
CHERRY/GLENN   N/A       37 N/A N/A SE6               PIMA CO DEQ
TANGERINE      N/A       33 N/A N/A NE5               PIMA CO DEQ
CONTL RANCH    N/A       35  25  66 SE4               PIMA CO DEQ
GRANT/1ST      N/A       37  22  55 E2                PIMA CO DEQ
CRAYCROFT/22ND N/A       37  20  50 N/A               PIMA CO DEQ
GOLFLINKS/KOLB N/A       36  19  50 SE3               PIMA CO DEQ
AJO/12TH       N/A       33  20  59 S6                PIMA CO DEQ
FAIRGROUNDS    N/A       32 N/A N/A E8                PIMA CO DEQ
SAGUARO        N/A       35  23  62 N3                *SABINO CYN
SAN CARLOS     N/A       30  21  70 NW3               *SAN CARLOS
GREEN VALLEY   N/A       31  20  62 S5                PIMA CO DEQ
HORSE CAMP CYN N/A       35  16  45 E3                *ARAVAIPA CYN
RINCON MTNS    N/A       27  -4  24 W3G12             *NR MANNING CAMP
$$

AZZ509>511-241615-
LOCATION       SKY/WX    TMP DP  RH WIND       PRES   REMARKS
SAFFORD          N/A     37  18  46 SE3       30.06R
STRAY HORSE    N/A       24   8  49 N/A               *
TRAIL CABIN    N/A       29  14  54 W4G10             *N OF GRANVILLE
BLACK HILLS    NOT AVBL
DRY LAKE       N/A       21  12  67 NW3               *NATANES MTNS
NOON CREEK     N/A       30  13  49 SW6G10            *PINALENO MTNS
COLUMBINE      N/A       22 -12  20 W5G17             *PINALENO MTNS
GUTHRIE        N/A       27  11  50 W16G22            *SW OF GUTHRIE
$$

AZZ502-503-513-241615-
LOCATION       SKY/WX    TMP DP  RH WIND       PRES   REMARKS
NOGALES        SUNNY     35  22  58 CALM      30.07R
SELLS          N/A       38  22  52 E4                *
SASABE         N/A       26  21  81 S3                *ALTAR VLY
HOPKINS        N/A       35 -10  13 W10G18            *SANTA RITA MTNS
CARR CYN       N/A       27  13  55 SW2               *W OF HEREFORD
$$

AZZ507-508-512-241615-
LOCATION       SKY/WX    TMP DP  RH WIND       PRES   REMARKS
SIERRA VISTA   SUNNY     37  17  44 W6        30.07R WCI  32
DOUGLAS        SUNNY     36  18  48 NW5       30.08R WCI  32
EMPIRE MTNS    NOT AVBL
MULESHOE RANCH N/A       32  14  46 CALM              *PRESERVE
HEADQUARTERS   NOT AVBL
$$

.............................NOTES.............................
THIS IS AN AUTOMATED COLLECTIVE WITH MINIMAL QUALITY CONTROL.
PIMA CO DEQ SITES HAVE NONSTANDARD WIND SENSOR HEIGHTS.
PIMA CO DEQ SITES DO NOT REPORT WIND GUSTS.
* INDICATES WIND SENSORS LOCATED AT 20 FEET INSTEAD OF 33 FEET.
..............................KEY..............................
SKY/WX - SKY CONDITION/WEATHER
TMP    - TEMPERATURE IN FAHRENHEIT
DP     - DEWPOINT IN FAHRENHEIT
RH     - RELATIVE HUMIDITY IN PERCENT
WIND   - DIRECTION AND SPEED IN MILES PER HOUR (MPH)
VRB    - VARIABLE WIND DIRECTION
PRES   - MEAN SEA LEVEL PRESSURE IN INCHES OF MERCURY
         F - FALLING PRESSURE   R - RISING PRESSURE
         S - STEADY PRESSURE
VSB    - VISIBILITY IN MILES
HX     - HEAT INDEX IN FAHRENHEIT
WCI    - WIND CHILL INDEX IN FAHRENHEIT
N/A    - NOT AVAILABLE
AFB    - AIR FORCE BASE
         DAVIS-MONTHAN IS DAVIS-MONTHAN AIR FORCE BASE
CYN    - CANYON
MTNS   - MOUNTAINS
NCA    - NATIONAL CONSERVATION AREA
NR     - NEAR
VLY    - VALLEY
CONTL  - CONTINENTAL
PIMA CO DEQ - PIMA COUNTY DEPT OF ENVIRONMENTAL QUALITY



USA.gov is the U.S. government's official web portal to all federal, state and local government web resources and services.